Lid_Strength_Index
-0 -1 -1 -1 -1 -1 -1 -1 -1 -1 -1 -1 -1 -1 -1 -1 -1 -1 -1 -2 -2 -2 -2 -2 -1 -1 -1 -1 -1 -1 -1 -2 -2 -1 -2 -1 -1 -1 -1 -1 -1 -1 -0
-1 -0 -0 -0 -1 -1 -1 -1 -0 -0 -0 -1 -0 -1 -1 -1 -1 -1 -1 -2 -2 -2 -2 -2 -1 -1 -1 -1 -1 -1 -1 -2 -2 -1 -1 -1 -1 -0 0 1 1 1 2
-1 -1 -0 -0 -1 -1 -1 -1 -0 -1 -0 -0 -0 -0 -0 -1 -1 -1 -1 -1 -1 -2 -2 -1 -1 -1 -1 -1 -1 -1 -1 -1 -2 -1 -1 -0 0 1 2 3 4 3 3
-1 -1 -0 -0 -1 -1 -1 -0 0 1 1 0 0 0 -0 -0 -0 -1 -1 -1 -1 -1 -2 -1 -1 -1 -1 -1 -1 -1 -1 -1 -1 -1 -0 1 3 4 5 5 4 3 3
-1 -1 -0 -1 -1 -0 -0 -0 0 0 1 1 1 0 0 0 -0 -0 -0 -1 -1 -1 -1 -2 -1 -1 -1 -1 -1 -1 -1 -1 -1 -0 1 3 5 5 5 5 4 4 4
-1 -1 -1 -1 -1 -0 -0 -0 0 0 1 1 1 1 0 0 -0 -0 -0 -0 -1 -1 -1 -1 -1 -1 -0 -1 -1 -1 -1 -1 -0 1 3 4 5 5 5 5 5 5 4
-2 -1 -1 -1 -1 -0 -0 -0 0 1 1 1 2 2 1 0 0 0 -0 -0 -0 -1 -1 -1 -1 -1 -1 -0 -0 -1 -1 -1 0 2 4 5 6 6 6 6 6 5 5
-1 -1 -1 -1 -1 0 -0 0 1 2 1 1 3 3 5 3 1 1 0 0 0 -0 -0 -1 -1 -1 -1 -1 -1 -1 -1 -1 1 3 5 6 6 6 7 7 7 6 6
-1 -1 -1 -1 -1 -0 0 0 1 1 3 1 1 3 5 6 3 1 1 1 1 1 0 -0 -0 -1 -1 -1 -1 -1 -1 -0 1 2 5 6 6 7 7 7 7 7 7
-1 -1 -1 -1 -1 -0 -0 0 0 1 1 3 1 1 1 2 5 5 2 1 1 1 0 0 0 -0 -1 -1 -1 -1 0 0 1 3 4 5 6 7 7 7 7 7 6
-1 -1 -1 -1 -0 -0 -0 -0 0 0 1 2 2 2 2 2 2 4 6 3 1 1 0 0 0 0 -0 -0 -0 -0 1 2 3 4 5 5 6 7 7 7 7 7 6
0 -1 -1 -1 -1 -0 -0 -0 -0 0 1 1 1 2 2 3 3 4 4 4 4 2 1 0 0 1 1 1 1 2 3 3 4 5 6 6 7 7 7 7 7 7 6
1 -0 -1 -0 -0 -0 -0 -0 -0 0 0 1 1 2 1 2 1 2 3 4 4 2 2 1 1 2 3 3 2 2 3 5 6 7 8 8 7 7 6 6 7 7 6
1 0 -0 -1 -1 -1 -0 -0 0 0 -0 1 1 1 2 1 1 1 3 4 5 4 4 3 3 3 3 2 2 2 4 6 7 8 7 6 7 6 6 6 7 7 7
1 1 0 -0 -0 -0 -0 -0 0 0 0 0 1 1 1 1 1 1 1 2 4 6 6 3 3 4 4 3 2 6 6 6 8 8 8 8 8 7 6 6 7 8 8
1 1 1 -0 -0 -0 -0 -0 0 0 0 1 1 1 1 1 1 1 1 2 2 4 6 4 5 6 6 6 7 8 8 8 8 8 8 8 7 7 7 8 8 9 9
2 1 1 0 0 0 -0 0 0 0 1 1 1 2 1 1 2 3 3 1 2 3 5 9 8 7 8 9 9 9 8 8 8 8 8 8 8 8 8 8 9 10 9
2 1 1 0 0 0 0 0 1 1 1 2 2 2 3 3 4 5 5 6 6 7 6 9 10 11 10 10 9 9 9 9 9 9 9 9 9 9 9 10 10 10 7
2 1 1 1 0 0 1 0 0 2 3 4 4 4 4 4 3 4 4 6 8 8 8 10 12 11 10 10 11 11 11 11 10 10 10 10 9 9 10 10 10 7 8
2 1 1 1 0 0 1 1 1 4 6 5 5 4 3 4 5 5 5 6 7 8 9 11 12 12 12 11 11 12 13 12 12 11 10 10 9 10 10 10 7 7 8
1 2 2 1 0 1 1 2 3 4 6 5 5 5 5 5 6 5 6 7 8 9 10 11 12 12 12 11 12 12 13 13 12 11 11 11 10 9 8 7 7 7 8
2 3 1 1 1 2 5 4 4 6 6 6 6 6 6 6 7 7 7 7 7 8 10 11 12 12 12 12 11 12 12 12 12 10 10 11 7 7 7 7 7 8 8
4 2 2 3 3 3 6 6 6 5 6 5 5 5 6 6 6 7 8 8 7 8 8 10 12 12 12 11 11 11 11 11 12 10 8 9 7 7 7 8 8 8 8
3 3 3 4 5 6 7 7 6 5 5 5 5 6 6 7 7 8 8 9 9 8 9 9 10 10 10 9 9 9 10 9 8 7 7 10 8 9 8 8 8 8 8
4 4 5 6 7 6 7 7 7 6 6 7 7 7 6 7 9 8 7 8 8 9 9 10 10 10 11 11 9 8 8 8 9 8 7 9 9 9 8 8 8 8 8
7 6 6 6 6 7 8 8 7 7 8 9 8 8 9 9 10 9 7 9 9 8 8 8 8 7 6 6 6 6 6 8 8 9 8 9 9 9 10 8 8 7 6